This is the latest recevied weather packets stored in our database for station/object KC8BSD. If no packets are shown the sender has not sent any weather packets the latest 10 day(s).
| Time | Temp. | Humidity | Pressure | Rain* | Wind** | Luminosity | Snow |
|---|---|---|---|---|---|---|---|
| 1777841077 | 16.67° C | 43% | 1010.8 hPa | 0 mm | - | 191 W/m² | - |
| 1777840773 | 16.67° C | 43% | 1010.7 hPa | 0 mm | - | 136 W/m² | - |
| 1777840471 | 17.22° C | 42% | 1010.9 hPa | 0 mm | - | 168 W/m² | - |
| 1777840168 | 17.22° C | 47% | 1010.9 hPa | 0 mm | - | 260 W/m² | - |
| 1777839866 | 17.78° C | 42% | 1010.9 hPa | 0 mm | - | 165 W/m² | - |
| 1777839565 | 17.22° C | 40% | 1011 hPa | 0 mm | - | 713 W/m² | - |
| 1777839261 | 17.22° C | 43% | 1011.1 hPa | 0 mm | - | 251 W/m² | - |
| 1777838959 | 17.78° C | 40% | 1010.9 hPa | 0 mm | - | 203 W/m² | - |
| 1777838654 | 18.33° C | 39% | 1011.1 hPa | 0 mm | - | 209 W/m² | - |
| 1777838352 | 18.33° C | 37% | 1011 hPa | 0 mm | - | 633 W/m² | - |
| 1777838049 | 18.33° C | 42% | 1011.1 hPa | 0 mm | - | 614 W/m² | - |
| 1777837745 | 17.78° C | 37% | 1011.2 hPa | 0 mm | - | 520 W/m² | - |
| 1777837442 | 18.33° C | 38% | 1011.1 hPa | 0 mm | - | 251 W/m² | - |
| 1777837138 | 18.33° C | 37% | 1011.2 hPa | 0 mm | - | 635 W/m² | - |
| 1777836833 | 18.33° C | 41% | 1011.3 hPa | 0 mm | - | 301 W/m² | - |
| 1777836529 | 17.78° C | 41% | 1011.4 hPa | 0 mm | - | 261 W/m² | - |
| 1777836225 | 18.89° C | 38% | 1011.4 hPa | 0 mm | - | 696 W/m² | - |
| 1777835922 | 18.89° C | 37% | 1011.5 hPa | 0 mm | - | 701 W/m² | - |
| 1777835619 | 18.33° C | 39% | 1011.7 hPa | 0 mm | - | 702 W/m² | - |
| 1777835315 | 18.89° C | 37% | 1011.6 hPa | 0 mm | - | 214 W/m² | - |
| 1777835013 | 18.89° C | 39% | 1011.6 hPa | 0 mm | - | 682 W/m² | - |
| 1777834710 | 18.89° C | 41% | 1011.7 hPa | 0 mm | - | 704 W/m² | - |
| 1777834405 | 19.44° C | 42% | 1011.6 hPa | 0 mm | - | 773 W/m² | - |
| 1777834100 | 18.33° C | 41% | 1011.8 hPa | 0 mm | - | 812 W/m² | - |
| 1777833796 | 17.78° C | 37% | 1011.8 hPa | 0 mm | - | 827 W/m² | - |
* Rain latest hour (hover to see other rain measurements)
** Current wind speed in m/s (hover to see current wind gust speed)